Hourly Data Report for December 27, 2004

SHERBROOKE A
QUEBEC

45°26'00.000" N
71°41'00.000" W
241.40 m
7028124
71610
YSC

Download Data

Hourly Data (December 2004)
Hourly Data Report for December 27, 2004
TIME
LST
Temp Definition
°C
Dew Point Definition
°C
Rel Hum Definition
%
Precip. Amount Definition
mm

Wind Dir Definition
10's deg

Wind Spd Definition
km/h
Visibility Definition
km
Stn Press Definition
kPa
Hmdx Definition


Wind Chill Definition


Weather Definition


00:00 -12.8 -15.2 82   4 15 2.6 99.55   -20 Snow
01:00 -13.9 -16.4 81   3 15 2.4 99.43   -22 Snow
02:00 -14.3 -17.3 78   3 20 4.0 99.41   -23 Snow
03:00 -14.8 -17.8 78   3 20 3.5 99.39   -24 Snow
04:00 -14.8 -17.7 79   4 15 3.9 99.39   -23 Snow
05:00 -14.6 -17.5 79   1 13 5.6 99.38   -22 Snow
06:00 -14.5 -17.3 79   4 11 3.1 99.45   -21 Snow
07:00 -14.5 -16.8 83   2 7 2.1 99.49   -19 Snow
08:00 -14.6 -17.1 81   36 6 4.8 99.53   -19 Snow
09:00 -14.6 -18.4 73   33 11 16.1 99.54   -21 Snow
10:00 -14.5 -18.1 74   32 13 16.1 99.53   -22 Snow
11:00 -13.9 -18.4 69   32 15 19.3 99.52   -22 Mostly Cloudy
12:00 -14.0 -18.6 68   31 15 19.3 99.43   -22 Mostly Cloudy
13:00 -15.5 -18.6 77   28 28 19.3 99.46   -26 Mostly Cloudy
14:00 -16.7 -20.6 72   28 30 19.3 99.50   -28 Mostly Cloudy
15:00 -16.7 -21.3 67   29 30 19.3 99.58   -28 Mainly Clear
16:00 -16.9 -22.0 65   29 32 19.3 99.61   -29 Mainly Clear
17:00 -17.3 -21.6 69   29 26 19.3 99.67   -28 Mainly Clear
18:00 -17.7 -21.8 70   28 17 15.0 99.75   -27  
19:00 -18.6 -21.4 79   28 11 15.0 99.77   -26  
20:00 -18.4 -20.9 81   27 11 15.0 99.80   -26  
21:00 -17.7 -21.3 73   27 13 15.0 99.82   -26  
22:00 -17.4 -21.9 68   26 13 15.0 99.87   -25  
23:00 -17.3 -22.2 66   25 15 15.0 99.86   -26  

Notes on Data Quality.

Legend

  • E = Estimated
  • M = Missing
  • NA = Not Available*
  • [empty] = Indicates an unobserved value
Date modified: